| time (UTC) | temp C | wind direction | speed KPH | gust KPH | rain 1hr cm | rain 24hr cm | rain mn cm | humidity % | barometer mb |
| 20260505101004 | 10 | 45 | 17.7 | 27.4 | 0.00 | 2.87 | 2.87 | 79 | 1006.0 |
| 20260505100004 | 10 | 45 | 14.5 | 19.3 | 0.00 | 2.87 | 2.87 | 79 | 1005.9 |
| 20260505095024 | 10 | 45 | 12.9 | 19.3 | 0.00 | 2.87 | 2.87 | 80 | 1005.9 |
| 20260505094003 | 10 | 23 | 11.3 | 17.7 | 0.00 | 2.87 | 2.87 | 80 | 1005.6 |
| 20260505093004 | 10 | 45 | 14.5 | 19.3 | 0.00 | 2.87 | 2.87 | 80 | 1005.7 |
| 20260505092003 | 10 | 45 | 16.1 | 20.9 | 0.00 | 2.87 | 2.87 | 82 | 1005.3 |
| 20260505091023 | 9 | 45 | 14.5 | 22.5 | 0.00 | 2.87 | 2.87 | 83 | 1005.1 |
| 20260505090008 | 9 | 23 | 12.9 | 24.1 | 0.10 | 2.87 | 2.87 | 83 | 1005.0 |
| 20260505085003 | 9 | 45 | 11.3 | 14.5 | 0.30 | 2.87 | 2.87 | 84 | 1004.6 |
| 20260505084003 | 9 | 23 | 16.1 | 24.1 | 0.46 | 2.87 | 2.87 | 85 | 1004.2 |
| 20260505083004 | 9 | 0 | 20.9 | 32.2 | 0.53 | 2.87 | 2.87 | 86 | 1003.4 |
| 20260505082023 | 9 | 45 | 17.7 | 25.7 | 0.66 | 2.87 | 2.87 | 86 | 1002.1 |
| 20260505081003 | 10 | 45 | 19.3 | 29.0 | 0.76 | 2.87 | 2.87 | 86 | 1001.5 |
| 20260505080005 | 10 | 45 | 19.3 | 32.2 | 0.66 | 2.74 | 2.74 | 85 | 1004.0 |
| 20260505075003 | 11 | 68 | 11.3 | 17.7 | 0.51 | 2.54 | 2.54 | 83 | 1005.2 |
| 20260505074003 | 11 | 0 | 12.9 | 16.1 | 0.41 | 2.39 | 2.39 | 82 | 1006.3 |
| 20260505073004 | 11 | 338 | 14.5 | 22.5 | 0.56 | 2.31 | 2.31 | 83 | 1006.6 |
| 20260505072004 | 12 | 315 | 16.1 | 20.9 | 1.07 | 2.18 | 2.18 | 81 | 1006.3 |
| 20260505071004 | 12 | 0 | 14.5 | 17.7 | 1.60 | 2.11 | 2.11 | 81 | 1005.3 |
| 20260505070005 | 12 | 23 | 8.0 | 12.9 | 1.91 | 2.06 | 2.06 | 83 | 1004.5 |
| 20260505065003 | 12 | 0 | 11.3 | 16.1 | 2.03 | 2.03 | 2.03 | 86 | 1004.1 |
| 20260505064003 | 13 | 0 | 8.0 | 12.9 | 1.96 | 1.96 | 1.96 | 84 | 1004.2 |
| 20260505063003 | 13 | 23 | 9.7 | 12.9 | 1.73 | 1.73 | 1.73 | 84 | 1004.3 |
| 20260505062003 | 13 | 0 | 17.7 | 24.1 | 1.07 | 1.07 | 1.07 | 80 | 1003.5 |
| 20260505061028 | 15 | 23 | 19.3 | 27.4 | 0.46 | 0.46 | 0.46 | 75 | 1003.4 |
| 20260505060004 | 17 | 0 | 16.1 | 24.1 | 0.08 | 0.08 | 0.08 | 68 | 1002.9 |
| 20260505055003 | 18 | 23 | 16.1 | 33.8 | 0.00 | 0.00 | 0.00 | 63 | 1002.4 |
| 20260505054003 | 20 | 23 | 22.5 | 30.6 | 0.00 | 0.00 | 0.00 | 56 | 1002.2 |
| 20260505053004 | 20 | 0 | 22.5 | 27.4 | 0.00 | 0.00 | 0.00 | 55 | 1001.9 |
| 20260505052003 | 20 | 23 | 17.7 | 25.7 | 0.00 | 0.00 | 0.00 | 70 | 1001.7 |
| 20260505051003 | 20 | 338 | 17.7 | 22.5 | 0.00 | 0.00 | 0.00 | 75 | 1001.6 |
| 20260505041004 | 21 | 203 | 11.3 | 14.5 | 0.00 | 0.00 | 0.00 | 75 | 1001.0 |
| 20260505040009 | 21 | 203 | 9.7 | 14.5 | 0.00 | 0.00 | 0.00 | 75 | 1001.2 |
| 20260505035024 | 21 | 180 | 6.4 | 11.3 | 0.00 | 0.00 | 0.00 | 75 | 1001.1 |
| 20260505034003 | 21 | 158 | 3.2 | 11.3 | 0.00 | 0.00 | 0.00 | 75 | 1001.1 |
| 20260505033004 | 21 | 180 | 6.4 | 11.3 | 0.00 | 0.00 | 0.00 | 75 | 1001.2 |
| 20260505032003 | 21 | 203 | 9.7 | 12.9 | 0.00 | 0.00 | 0.00 | 75 | 1001.0 |
| 20260505031003 | 21 | 203 | 4.8 | 8.0 | 0.00 | 0.00 | 0.00 | 74 | 1000.8 |
| 20260505030009 | 21 | 180 | 4.8 | 11.3 | 0.00 | 0.00 | 0.00 | 74 | 1000.9 |
| 20260505025004 | 22 | 180 | 6.4 | 9.7 | 0.00 | 0.00 | 0.00 | 72 | 1000.7 |
| 20260505024105 | 22 | 203 | 3.2 | 4.8 | 0.00 | 0.00 | 0.00 | 71 | 1000.5 |
| 20260505023025 | 22 | 180 | 6.4 | 9.7 | 0.00 | 0.00 | 0.00 | 70 | 1000.4 |
| 20260505022004 | 22 | 180 | 4.8 | 8.0 | 0.00 | 0.00 | 0.00 | 70 | 1000.2 |
| 20260505021005 | 22 | 203 | 3.2 | 4.8 | 0.00 | 0.00 | 0.00 | 69 | 1000.2 |
| 20260505020004 | 22 | 0.0 | 3.2 | 0.00 | 0.00 | 0.00 | 67 | 1000.1 | |
| 20260505015004 | 23 | 248 | 3.2 | 4.8 | 0.00 | 0.00 | 0.00 | 67 | 1000.0 |
| 20260505014003 | 23 | 225 | 1.6 | 3.2 | 0.00 | 0.00 | 0.00 | 65 | 999.7 |
| 20260505013004 | 23 | 248 | 1.6 | 1.6 | 0.00 | 0.00 | 0.00 | 65 | 999.6 |
| 20260505012003 | 23 | 248 | 1.6 | 4.8 | 0.00 | 0.00 | 0.00 | 65 | 999.5 |
| 20260505011003 | 23 | 270 | 1.6 | 3.2 | 0.00 | 0.00 | 0.00 | 65 | 999.3 |
| 20260505010004 | 23 | 248 | 3.2 | 3.2 | 0.00 | 0.00 | 0.00 | 65 | 999.3 |
| 20260505005023 | 24 | 248 | 3.2 | 4.8 | 0.00 | 0.00 | 0.00 | 62 | 999.2 |
| 20260505004004 | 25 | 0.0 | 1.6 | 0.00 | 0.00 | 0.00 | 62 | 999.0 | |
| 20260505003004 | 25 | 0.0 | 1.6 | 0.00 | 0.00 | 0.00 | 60 | 998.9 | |
| 20260505002023 | 25 | 225 | 1.6 | 3.2 | 0.00 | 0.00 | 0.00 | 61 | 998.9 |
| 20260505001023 | 25 | 248 | 3.2 | 6.4 | 0.00 | 0.00 | 0.00 | 60 | 999.0 |
| 20260505000004 | 25 | 248 | 1.6 | 3.2 | 0.00 | 0.00 | 0.00 | 56 | 999.1 |
| 20260504235003 | 25 | 270 | 3.2 | 4.8 | 0.00 | 0.00 | 0.00 | 59 | 999.1 |
| 20260504234003 | 26 | 248 | 3.2 | 4.8 | 0.00 | 0.00 | 0.00 | 55 | 999.0 |
| 20260504233003 | 26 | 248 | 3.2 | 4.8 | 0.00 | 0.00 | 0.00 | 54 | 999.1 |
| 20260504232003 | 26 | 248 | 8.0 | 11.3 | 0.00 | 0.00 | 0.00 | 53 | 999.3 |
| 20260504231003 | 26 | 225 | 4.8 | 11.3 | 0.00 | 0.00 | 0.00 | 52 | 999.2 |
| 20260504230004 | 26 | 203 | 4.8 | 8.0 | 0.00 | 0.00 | 0.00 | 53 | 999.2 |
| 20260504225003 | 27 | 203 | 9.7 | 14.5 | 0.00 | 0.00 | 0.00 | 51 | 999.3 |
| 20260504224003 | 27 | 225 | 8.0 | 12.9 | 0.00 | 0.00 | 0.00 | 51 | 999.2 |
| 20260504223003 | 27 | 225 | 11.3 | 19.3 | 0.00 | 0.00 | 0.00 | 53 | 999.2 |
| 20260504222003 | 27 | 248 | 12.9 | 16.1 | 0.00 | 0.00 | 0.00 | 50 | 999.3 |
| 20260504221003 | 27 | 270 | 11.3 | 16.1 | 0.00 | 0.00 | 0.00 | 54 | 999.3 |
| 20260504220004 | 26 | 203 | 12.9 | 17.7 | 0.00 | 0.00 | 0.00 | 52 | 999.4 |
| 20260504215003 | 27 | 225 | 9.7 | 16.1 | 0.00 | 0.00 | 0.00 | 51 | 999.6 |
| 20260504214003 | 26 | 248 | 11.3 | 16.1 | 0.00 | 0.00 | 0.00 | 53 | 999.7 |
| 20260504213004 | 26 | 203 | 6.4 | 14.5 | 0.00 | 0.00 | 0.00 | 52 | 999.7 |
| 20260504212003 | 26 | 225 | 14.5 | 20.9 | 0.00 | 0.00 | 0.00 | 55 | 999.8 |
| 20260504211003 | 26 | 248 | 12.9 | 17.7 | 0.00 | 0.00 | 0.00 | 53 | 999.9 |
| 20260504210008 | 26 | 225 | 9.7 | 17.7 | 0.00 | 0.00 | 0.00 | 53 | 999.9 |
| 20260504205003 | 26 | 203 | 14.5 | 24.1 | 0.00 | 0.00 | 0.00 | 52 | 1000.1 |
| 20260504204003 | 26 | 225 | 8.0 | 11.3 | 0.00 | 0.00 | 0.00 | 54 | 1000.2 |
| 20260504203023 | 26 | 225 | 12.9 | 16.1 | 0.00 | 0.00 | 0.00 | 52 | 1000.2 |
| 20260504202023 | 26 | 248 | 12.9 | 19.3 | 0.00 | 0.00 | 0.00 | 51 | 1000.2 |
| 20260504201002 | 26 | 203 | 14.5 | 24.1 | 0.00 | 0.00 | 0.00 | 51 | 1000.2 |
| 20260504200003 | 26 | 203 | 16.1 | 22.5 | 0.00 | 0.00 | 0.00 | 54 | 1000.3 |
| 20260504195003 | 26 | 203 | 12.9 | 19.3 | 0.00 | 0.00 | 0.00 | 52 | 1000.3 |
| 20260504194003 | 26 | 203 | 12.9 | 16.1 | 0.00 | 0.00 | 0.00 | 53 | 1000.2 |
| 20260504193004 | 26 | 180 | 22.5 | 30.6 | 0.00 | 0.00 | 0.00 | 52 | 1000.2 |
| 20260504192003 | 26 | 225 | 11.3 | 19.3 | 0.00 | 0.00 | 0.00 | 54 | 1000.3 |
| 20260504191003 | 26 | 225 | 8.0 | 12.9 | 0.00 | 0.00 | 0.00 | 55 | 1000.4 |
| 20260504190002 | 25 | 203 | 12.9 | 16.1 | 0.00 | 0.00 | 0.00 | 52 | 1000.4 |
| 20260504185003 | 25 | 225 | 19.3 | 25.7 | 0.00 | 0.00 | 0.00 | 54 | 1000.4 |
| 20260504184003 | 25 | 248 | 16.1 | 19.3 | 0.00 | 0.00 | 0.00 | 52 | 1000.5 |
| 20260504183003 | 25 | 248 | 11.3 | 14.5 | 0.00 | 0.00 | 0.00 | 52 | 1000.6 |
| 20260504182002 | 25 | 225 | 9.7 | 14.5 | 0.00 | 0.00 | 0.00 | 51 | 1000.5 |
| 20260504181023 | 25 | 203 | 16.1 | 24.1 | 0.00 | 0.00 | 0.00 | 52 | 1000.6 |
| 20260504180003 | 24 | 248 | 17.7 | 24.1 | 0.00 | 0.00 | 0.00 | 52 | 1000.7 |
| 20260504175043 | 24 | 248 | 19.3 | 27.4 | 0.00 | 0.00 | 0.00 | 53 | 1000.9 |
| 20260504174023 | 24 | 248 | 16.1 | 20.9 | 0.00 | 0.00 | 0.00 | 55 | 1000.9 |
| 20260504173023 | 23 | 248 | 12.9 | 19.3 | 0.00 | 0.00 | 0.00 | 55 | 1000.9 |
| 20260504172003 | 23 | 270 | 17.7 | 22.5 | 0.00 | 0.00 | 0.00 | 55 | 1001.0 |
| 20260504171003 | 23 | 203 | 9.7 | 22.5 | 0.00 | 0.00 | 0.00 | 57 | 1001.1 |
| 20260504151003 | 21 | 203 | 17.7 | 24.1 | 0.00 | 0.00 | 0.00 | 59 | 1001.4 |
| 20260504141002 | 20 | 203 | 14.5 | 20.9 | 0.00 | 0.00 | 0.00 | 62 | 1001.4 |